Change the Weather History Date:

Tuesday, January 8, 2013

  Actual Average Record
Temperature  
Mean Temperature 38 °F -  
Max Temperature 51 °F 56 °F 71 °F (2006)
Min Temperature 26 °F 25 °F 10 °F (1997)
Degree Days  
Heating Degree Days 26    
Moisture  
Dew Point 31 °F    
Average Humidity 81    
Maximum Humidity 100    
Minimum Humidity 54    
Precipitation  
Precipitation 0.00 in - - ()
Sea Level Pressure  
Sea Level Pressure 29.91 in    
Wind  
Wind Speed 2 mph (NNE)    
Max Wind Speed 16 mph    
Max Gust Speed 21 mph    
Visibility 10 miles    
Events      
Averages and records for this station are not official NWS values.
T = Trace of Precipitation, MM = Missing Value Source: NWS Daily Summary

Daily Weather History Graph

Daily Weather History Graph

Search for Another Location

Airport or City:

Trip Planner

Search our weather history database for the weather conditions in past years. The results will help you decide how hot, cold, wet, or windy it might be!

Date:

Astronomy

Jan. 08, 2013 Rise Set
Actual Time 7:53 AM CST 6:12 PM CST
Civil Twilight 7:27 AM CST 6:38 PM CST
Nautical Twilight 6:57 AM CST 7:08 PM CST
Astronomical Twilight 6:28 AM CST 7:37 PM CST
Moon 4:30 AM CST (1/8) 3:16 PM CST (1/8)
Length of Visible Light 11h 10m
Length of Day
10h 18m
Waning Crescent, 13% of the Moon is Illuminated
Jan 8
Waning Crescent
Jan 11
New
Jan 18
First Quarter
Jan 26
Full
Feb 3
Last Quarter

Hourly Weather History & Observations

Time (CST) Temp. Windchill Dew Point Humidity Pressure Visibility Wind Dir Wind Speed Gust Speed Precip Events Conditions
12:15 AM 32.0 °F - 28.4 °F 87% 29.88 in 10.0 mi Calm Calm - N/A   Clear
12:55 AM 30.2 °F - 26.6 °F 86% 29.88 in 10.0 mi Calm Calm - N/A   Clear
1:15 AM 30.2 °F - 26.6 °F 86% 29.87 in 10.0 mi Calm Calm - N/A   Clear
1:35 AM 32.0 °F - 28.4 °F 87% 29.86 in 10.0 mi Calm Calm - N/A   Clear
1:55 AM 30.2 °F - 28.4 °F 93% 29.87 in 10.0 mi Calm Calm - N/A   Clear
2:15 AM 30.2 °F - 28.4 °F 93% 29.87 in 10.0 mi Calm Calm - N/A   Clear
2:35 AM 30.2 °F - 26.6 °F 86% 29.86 in 10.0 mi Calm Calm - N/A   Clear
2:55 AM 30.2 °F - 26.6 °F 86% 29.86 in 10.0 mi Calm Calm - N/A   Clear
3:15 AM 30.2 °F - 28.4 °F 93% 29.86 in 10.0 mi Calm Calm - N/A   Clear
3:35 AM 32.0 °F - 28.4 °F 87% 29.86 in 10.0 mi Calm Calm - N/A   Clear
3:55 AM 33.8 °F 25.8 °F 28.4 °F 81% 29.85 in 10.0 mi NNE 10.4 mph - N/A   Clear
4:15 AM 32.0 °F 24.2 °F 26.6 °F 80% 29.85 in 10.0 mi NE 9.2 mph - N/A   Clear
4:35 AM 32.0 °F 24.8 °F 28.4 °F 87% 29.85 in 10.0 mi NNE 8.1 mph - N/A   Clear
4:55 AM 28.4 °F 21.2 °F 26.6 °F 93% 29.84 in 10.0 mi North 6.9 mph - N/A   Clear
5:15 AM 30.2 °F 22.6 °F 26.6 °F 86% 29.85 in 10.0 mi NNW 8.1 mph - N/A   Clear
5:35 AM 30.2 °F - 26.6 °F 86% 29.83 in 10.0 mi Calm Calm - N/A   Clear
5:55 AM 30.2 °F - 26.6 °F 86% 29.86 in 10.0 mi Calm Calm - N/A   Clear
6:15 AM 30.2 °F - 26.6 °F 86% 29.86 in 10.0 mi Calm Calm - N/A   Clear
6:35 AM 28.4 °F - 26.6 °F 93% 29.87 in 10.0 mi Calm Calm - N/A   Clear
6:55 AM 26.6 °F - 24.8 °F 93% 29.87 in 10.0 mi Calm Calm - N/A   Clear
7:15 AM 26.6 °F - 26.6 °F 100% 29.87 in 10.0 mi Calm Calm - N/A   Clear
7:35 AM 28.4 °F - 26.6 °F 93% 29.88 in 10.0 mi Calm Calm - N/A   Clear
8:15 AM 26.6 °F - 24.8 °F 93% 29.90 in 10.0 mi Calm Calm - N/A   Clear
8:35 AM 28.4 °F - 26.6 °F 93% 29.90 in 10.0 mi Calm Calm - N/A   Clear
8:55 AM 30.2 °F - 28.4 °F 93% 29.91 in 10.0 mi Calm Calm - N/A   Clear
9:15 AM 33.8 °F - 32.0 °F 93% 29.92 in 10.0 mi Calm Calm - N/A   Clear
9:35 AM 35.6 °F - 32.0 °F 87% 29.92 in 10.0 mi Calm Calm - N/A   Clear
9:55 AM 37.4 °F - 33.8 °F 87% 29.93 in 10.0 mi Calm Calm - N/A   Clear
10:15 AM 39.2 °F - 33.8 °F 81% 29.93 in 10.0 mi Calm Calm - N/A   Clear
10:35 AM 39.2 °F - 33.8 °F 81% 29.94 in 10.0 mi Calm Calm - N/A   Clear
10:55 AM 41.0 °F - 33.8 °F 76% 29.94 in 10.0 mi Calm Calm - N/A   Clear
11:15 AM 42.8 °F - 33.8 °F 70% 29.94 in 10.0 mi Calm Calm - N/A   Clear
11:35 AM 42.8 °F - 33.8 °F 70% 29.93 in 10.0 mi Calm Calm - N/A   Partly Cloudy
11:55 AM 44.6 °F - 33.8 °F 66% 29.93 in 10.0 mi Calm Calm - N/A   Scattered Clouds
12:15 PM 46.4 °F - 35.6 °F 66% 29.92 in 10.0 mi Calm Calm - N/A   Partly Cloudy
12:35 PM 48.2 °F - 35.6 °F 62% 29.91 in 10.0 mi Calm Calm - N/A   Clear
12:55 PM 48.2 °F - 35.6 °F 62% 29.90 in 10.0 mi Calm Calm - N/A   Clear
1:15 PM 48.2 °F - 35.6 °F 62% 29.88 in 10.0 mi Calm Calm - N/A   Clear
1:55 PM 50.0 °F - 37.4 °F 62% 29.89 in 10.0 mi Calm Calm - N/A   Scattered Clouds
2:15 PM 51.8 °F - 35.6 °F 54% 29.89 in 10.0 mi Calm Calm - N/A   Partly Cloudy
2:35 PM 50.0 °F - 35.6 °F 58% 29.88 in 10.0 mi Calm Calm - N/A   Clear
2:55 PM 51.8 °F - 35.6 °F 54% 29.88 in 10.0 mi Calm Calm - N/A   Clear
3:15 PM 51.8 °F - 35.6 °F 54% 29.88 in 10.0 mi Calm Calm - N/A   Clear
3:35 PM 51.8 °F - 37.4 °F 58% 29.88 in 10.0 mi Calm Calm - N/A   Clear
3:55 PM 50.0 °F - 35.6 °F 58% 29.89 in 10.0 mi Calm Calm - N/A   Clear
4:15 PM 50.0 °F - 35.6 °F 58% 29.89 in 10.0 mi Calm Calm - N/A   Clear
4:35 PM 48.2 °F - 35.6 °F 62% 29.90 in 10.0 mi NE 13.8 mph - N/A   Clear
4:55 PM 42.8 °F 37.0 °F 35.6 °F 76% 29.91 in 10.0 mi NE 10.4 mph - N/A   Clear
5:15 PM 41.0 °F 33.5 °F 33.8 °F 76% 29.90 in 10.0 mi NE 13.8 mph - N/A   Clear
5:35 PM 39.2 °F 32.0 °F 33.8 °F 81% 29.91 in 10.0 mi NNE 11.5 mph - N/A   Clear
5:55 PM 37.4 °F 29.3 °F 33.8 °F 87% 29.92 in 10.0 mi ENE 12.7 mph - N/A   Scattered Clouds
6:15 PM 35.6 °F 29.9 °F 33.8 °F 93% 29.90 in 10.0 mi NE 6.9 mph - N/A   Partly Cloudy
6:35 PM 37.4 °F - 33.8 °F 87% 29.91 in 10.0 mi Calm Calm - N/A   Clear
6:55 PM 35.6 °F 30.7 °F 30.2 °F 81% 29.94 in 10.0 mi East 5.8 mph 20.7 mph N/A   Clear
7:15 PM 35.6 °F - 33.8 °F 93% 29.94 in 10.0 mi Calm Calm - N/A   Clear
7:35 PM 35.6 °F - 32.0 °F 87% 29.94 in 10.0 mi Calm Calm - N/A   Clear
7:55 PM 35.6 °F - 32.0 °F 87% 29.95 in 10.0 mi Calm Calm - N/A   Clear
8:15 PM 33.8 °F - 32.0 °F 93% 29.94 in 10.0 mi Calm Calm - N/A   Clear
8:35 PM 35.6 °F 27.5 °F 32.0 °F 87% 29.93 in 10.0 mi NW 11.5 mph 16.1 mph N/A   Clear
8:55 PM 35.6 °F 26.6 °F 32.0 °F 87% 29.92 in 10.0 mi NNW 13.8 mph - N/A   Clear
9:15 PM 35.6 °F - 32.0 °F 87% 29.95 in 10.0 mi Calm Calm - N/A   Partly Cloudy
9:35 PM 35.6 °F - 30.2 °F 81% 29.96 in 10.0 mi Calm Calm - N/A   Partly Cloudy
9:55 PM 37.4 °F 32.8 °F 33.8 °F 87% 29.99 in 10.0 mi NNE 5.8 mph - N/A   Mostly Cloudy
10:15 PM 37.4 °F 30.8 °F 32.0 °F 81% 29.99 in 10.0 mi NW 9.2 mph - N/A   Overcast
10:35 PM 39.2 °F 31.6 °F 32.0 °F 75% 30.01 in 10.0 mi NNE 12.7 mph - N/A   Overcast
10:55 PM 37.4 °F 28.2 °F 30.2 °F 75% 30.02 in 10.0 mi ENE 16.1 mph - N/A   Mostly Cloudy
11:15 PM 35.6 °F 27.5 °F 32.0 °F 87% 30.04 in 10.0 mi ENE 11.5 mph 20.7 mph N/A   Mostly Cloudy
11:55 PM 33.8 °F 25.3 °F 32.0 °F 93% 30.04 in 9.0 mi NE 11.5 mph - N/A   Mostly Cloudy